Year,Month,Day,Hour,Minute,Value (Times are PST for temperature in C)
2017,01,07,00,00,3.60
2017,01,07,00,01,3.60
2017,01,07,00,02,3.60
2017,01,07,00,03,3.60
2017,01,07,00,04,3.60
2017,01,07,00,05,3.60
2017,01,07,00,06,3.60
2017,01,07,00,07,3.70
2017,01,07,00,08,3.70
2017,01,07,00,09,3.70
2017,01,07,00,10,3.70
2017,01,07,00,11,3.70
2017,01,07,00,12,3.70
2017,01,07,00,13,3.70
2017,01,07,00,14,3.70
2017,01,07,00,15,3.70
2017,01,07,00,16,3.70
2017,01,07,00,17,3.70
2017,01,07,00,18,3.70
2017,01,07,00,19,3.70
2017,01,07,00,20,3.70
2017,01,07,00,21,3.60
2017,01,07,00,22,3.70
2017,01,07,00,23,3.70
2017,01,07,00,24,3.70
2017,01,07,00,25,3.70
2017,01,07,00,26,3.70
2017,01,07,00,27,3.70
2017,01,07,00,28,3.70
2017,01,07,00,29,3.70
2017,01,07,00,30,3.70
2017,01,07,00,31,3.70
2017,01,07,00,32,3.80
2017,01,07,00,33,3.80
2017,01,07,00,34,3.80
2017,01,07,00,35,3.80
2017,01,07,00,36,3.80
2017,01,07,00,37,3.80
2017,01,07,00,38,3.80
2017,01,07,00,39,3.70
2017,01,07,00,40,3.70
2017,01,07,00,41,3.70
2017,01,07,00,42,3.80
2017,01,07,00,43,3.80
2017,01,07,00,44,3.80
2017,01,07,00,45,3.80
2017,01,07,00,46,3.80
2017,01,07,00,47,3.80
2017,01,07,00,48,3.80
2017,01,07,00,49,3.80
2017,01,07,00,50,3.80
2017,01,07,00,51,3.80
2017,01,07,00,52,3.80
2017,01,07,00,53,3.70
2017,01,07,00,54,3.70
2017,01,07,00,55,3.70
2017,01,07,00,56,3.70
2017,01,07,00,57,3.70
2017,01,07,00,58,3.80
2017,01,07,00,59,3.70
2017,01,07,01,00,3.70
2017,01,07,01,01,3.70
2017,01,07,01,02,3.70
2017,01,07,01,03,3.80
2017,01,07,01,04,3.70
2017,01,07,01,05,3.70
2017,01,07,01,06,3.70
2017,01,07,01,07,3.70
2017,01,07,01,08,3.70
2017,01,07,01,09,3.70
2017,01,07,01,10,3.70
2017,01,07,01,11,3.70
2017,01,07,01,12,3.70
2017,01,07,01,13,3.70
2017,01,07,01,14,3.80
2017,01,07,01,15,3.80
2017,01,07,01,16,3.80
2017,01,07,01,17,3.80
2017,01,07,01,18,3.80
2017,01,07,01,19,3.70
2017,01,07,01,20,3.70
2017,01,07,01,21,3.70
2017,01,07,01,22,3.70
2017,01,07,01,23,3.70
2017,01,07,01,24,3.70
2017,01,07,01,25,3.70
2017,01,07,01,26,3.70
2017,01,07,01,27,3.70
2017,01,07,01,28,3.70
2017,01,07,01,29,3.70
2017,01,07,01,30,3.70
2017,01,07,01,31,3.70
2017,01,07,01,32,3.70
2017,01,07,01,33,3.80
2017,01,07,01,34,3.80
2017,01,07,01,35,3.80
2017,01,07,01,36,3.80
2017,01,07,01,37,3.80
2017,01,07,01,38,3.70
2017,01,07,01,39,3.70
2017,01,07,01,40,3.70
2017,01,07,01,41,3.70
2017,01,07,01,42,3.70
2017,01,07,01,43,3.70
2017,01,07,01,44,3.70
2017,01,07,01,45,3.70
2017,01,07,01,46,3.70
2017,01,07,01,47,3.70
2017,01,07,01,48,3.70
2017,01,07,01,49,3.70
2017,01,07,01,50,3.70
2017,01,07,01,51,3.60
2017,01,07,01,52,3.60
2017,01,07,01,53,3.70
2017,01,07,01,54,3.70
2017,01,07,01,55,3.70
2017,01,07,01,56,3.70
2017,01,07,01,57,3.70
2017,01,07,01,58,3.70
2017,01,07,01,59,3.70
2017,01,07,02,00,3.70
2017,01,07,02,01,3.70
2017,01,07,02,02,3.70
2017,01,07,02,03,3.70
2017,01,07,02,04,3.70
2017,01,07,02,05,3.70
2017,01,07,02,06,3.70
2017,01,07,02,07,3.70
2017,01,07,02,08,3.70
2017,01,07,02,09,3.70
2017,01,07,02,10,3.70
2017,01,07,02,11,3.70
2017,01,07,02,12,3.70
2017,01,07,02,13,3.70
2017,01,07,02,14,3.70
2017,01,07,02,15,3.70
2017,01,07,02,16,3.70
2017,01,07,02,17,3.70
2017,01,07,02,18,3.70
2017,01,07,02,19,3.70
2017,01,07,02,20,3.70
2017,01,07,02,21,3.70
2017,01,07,02,22,3.70
2017,01,07,02,23,3.70
2017,01,07,02,24,3.70
2017,01,07,02,25,3.70
2017,01,07,02,26,3.60
2017,01,07,02,27,3.60
2017,01,07,02,28,3.60
2017,01,07,02,29,3.60
2017,01,07,02,30,3.50
2017,01,07,02,31,3.50
2017,01,07,02,32,3.50
2017,01,07,02,33,3.50
2017,01,07,02,34,3.50
2017,01,07,02,35,3.50
2017,01,07,02,36,3.50
2017,01,07,02,37,3.50
2017,01,07,02,38,3.50
2017,01,07,02,39,3.50
2017,01,07,02,40,3.50
2017,01,07,02,41,3.60
2017,01,07,02,42,3.60
2017,01,07,02,43,3.60
2017,01,07,02,44,3.60
2017,01,07,02,45,3.60
2017,01,07,02,46,3.60
2017,01,07,02,47,3.60
2017,01,07,02,48,3.60
2017,01,07,02,49,3.60
2017,01,07,02,50,3.60
2017,01,07,02,51,3.60
2017,01,07,02,52,3.60
2017,01,07,02,53,3.60
2017,01,07,02,54,3.60
2017,01,07,02,55,3.60
2017,01,07,02,56,3.60
2017,01,07,02,57,3.60
2017,01,07,02,58,3.70
2017,01,07,02,59,3.70
2017,01,07,03,00,3.70
2017,01,07,03,01,3.60
2017,01,07,03,02,3.60
2017,01,07,03,03,3.60
2017,01,07,03,04,3.60
2017,01,07,03,05,3.60
2017,01,07,03,06,3.60
2017,01,07,03,07,3.60
2017,01,07,03,08,3.60
2017,01,07,03,09,3.60
2017,01,07,03,10,3.60
2017,01,07,03,11,3.60
2017,01,07,03,12,3.60
2017,01,07,03,13,3.60
2017,01,07,03,14,3.60
2017,01,07,03,15,3.60
2017,01,07,03,16,3.60
2017,01,07,03,17,3.60
2017,01,07,03,18,3.60
2017,01,07,03,19,3.60
2017,01,07,03,20,3.60
2017,01,07,03,21,3.60
2017,01,07,03,22,3.60
2017,01,07,03,23,3.50
2017,01,07,03,24,3.50
2017,01,07,03,25,3.50
2017,01,07,03,26,3.50
2017,01,07,03,27,3.50
2017,01,07,03,28,3.50
2017,01,07,03,29,3.50
2017,01,07,03,30,3.50
2017,01,07,03,31,3.40
2017,01,07,03,32,3.40
2017,01,07,03,33,3.40
2017,01,07,03,34,3.40
2017,01,07,03,35,3.40
2017,01,07,03,36,3.40
2017,01,07,03,37,3.40
2017,01,07,03,38,3.30
2017,01,07,03,39,3.30
2017,01,07,03,40,3.30
2017,01,07,03,41,3.30
2017,01,07,03,42,3.30
2017,01,07,03,43,3.30
2017,01,07,03,44,3.30
2017,01,07,03,45,3.30
2017,01,07,03,46,3.30
2017,01,07,03,47,3.30
2017,01,07,03,48,3.30
2017,01,07,03,49,3.30
2017,01,07,03,50,3.30
2017,01,07,03,51,3.30
2017,01,07,03,52,3.30
2017,01,07,03,53,3.30
2017,01,07,03,54,3.30
2017,01,07,03,55,3.30
2017,01,07,03,56,3.30
2017,01,07,03,57,3.30
2017,01,07,03,58,3.30
2017,01,07,03,59,3.30
2017,01,07,04,00,3.30
2017,01,07,04,01,3.30
2017,01,07,04,02,3.30
2017,01,07,04,03,3.30
2017,01,07,04,04,3.30
2017,01,07,04,05,3.30
2017,01,07,04,06,3.30
2017,01,07,04,07,3.30
2017,01,07,04,08,3.30
2017,01,07,04,09,3.30
2017,01,07,04,10,3.40
2017,01,07,04,11,3.40
2017,01,07,04,12,3.40
2017,01,07,04,13,3.40
2017,01,07,04,14,3.40
2017,01,07,04,15,3.40
2017,01,07,04,16,3.40
2017,01,07,04,17,3.40
2017,01,07,04,18,3.40
2017,01,07,04,19,3.30
2017,01,07,04,20,3.40
2017,01,07,04,21,3.30
2017,01,07,04,22,3.40
2017,01,07,04,23,3.30
2017,01,07,04,24,3.40
2017,01,07,04,25,3.40
2017,01,07,04,26,3.40
2017,01,07,04,27,3.40
2017,01,07,04,28,3.40
2017,01,07,04,29,3.30
2017,01,07,04,30,3.30
2017,01,07,04,31,3.30
2017,01,07,04,32,3.30
2017,01,07,04,33,3.30
2017,01,07,04,34,3.30
2017,01,07,04,35,3.30
2017,01,07,04,36,3.30
2017,01,07,04,37,3.30
2017,01,07,04,38,3.30
2017,01,07,04,39,3.30
2017,01,07,04,40,3.30
2017,01,07,04,41,3.30
2017,01,07,04,42,3.30
2017,01,07,04,43,3.30
2017,01,07,04,44,3.30
2017,01,07,04,45,3.30
2017,01,07,04,46,3.30
2017,01,07,04,47,3.30
2017,01,07,04,48,3.20
2017,01,07,04,49,3.20
2017,01,07,04,50,3.20
2017,01,07,04,51,3.20
2017,01,07,04,52,3.20
2017,01,07,04,53,3.20
2017,01,07,04,54,3.20
2017,01,07,04,55,3.20
2017,01,07,04,56,3.20
2017,01,07,04,57,3.20
2017,01,07,04,58,3.20
2017,01,07,04,59,3.20
2017,01,07,05,00,3.20
2017,01,07,05,01,3.10
2017,01,07,05,02,3.10
2017,01,07,05,03,3.10
2017,01,07,05,04,3.00
2017,01,07,05,05,3.00
2017,01,07,05,06,3.00
2017,01,07,05,07,3.00
2017,01,07,05,08,3.00
2017,01,07,05,09,3.00
2017,01,07,05,10,3.00
2017,01,07,05,11,3.00
2017,01,07,05,12,2.90
2017,01,07,05,13,2.90
2017,01,07,05,14,2.90
2017,01,07,05,15,2.90
2017,01,07,05,16,2.90
2017,01,07,05,17,2.90
2017,01,07,05,18,2.90
2017,01,07,05,19,2.90
2017,01,07,05,20,2.90
2017,01,07,05,21,2.90
2017,01,07,05,22,2.80
2017,01,07,05,23,2.80
2017,01,07,05,24,2.90
2017,01,07,05,25,2.90
2017,01,07,05,26,2.90
2017,01,07,05,27,2.90
2017,01,07,05,28,2.90
2017,01,07,05,29,2.90
2017,01,07,05,30,2.80
2017,01,07,05,31,2.80
2017,01,07,05,32,2.90
2017,01,07,05,33,2.90
2017,01,07,05,34,2.90
2017,01,07,05,35,2.90
2017,01,07,05,36,2.90
2017,01,07,05,37,2.90
2017,01,07,05,38,2.90
2017,01,07,05,39,2.90
2017,01,07,05,40,2.90
2017,01,07,05,41,2.90
2017,01,07,05,42,2.90
2017,01,07,05,43,2.90
2017,01,07,05,44,2.90
2017,01,07,05,45,2.90
2017,01,07,05,46,2.90
2017,01,07,05,47,2.90
2017,01,07,05,48,2.90
2017,01,07,05,49,2.90
2017,01,07,05,50,2.90
2017,01,07,05,51,2.90
2017,01,07,05,52,2.80
2017,01,07,05,53,2.80
2017,01,07,05,54,2.80
2017,01,07,05,55,2.80
2017,01,07,05,56,2.80
2017,01,07,05,57,2.80
2017,01,07,05,58,2.80
2017,01,07,05,59,2.80
2017,01,07,06,00,2.80
2017,01,07,06,01,2.80
2017,01,07,06,02,2.80
2017,01,07,06,03,2.80
2017,01,07,06,04,2.80
2017,01,07,06,05,2.80
2017,01,07,06,06,2.80
2017,01,07,06,07,2.90
2017,01,07,06,08,2.90
2017,01,07,06,09,2.90
2017,01,07,06,10,2.90
2017,01,07,06,11,2.90
2017,01,07,06,12,2.90
2017,01,07,06,13,2.90
2017,01,07,06,14,2.90
2017,01,07,06,15,2.80
2017,01,07,06,16,2.80
2017,01,07,06,17,2.80
2017,01,07,06,18,2.80
2017,01,07,06,19,2.80
2017,01,07,06,20,2.80
2017,01,07,06,21,2.70
2017,01,07,06,22,2.70
2017,01,07,06,23,2.70
2017,01,07,06,24,2.80
2017,01,07,06,25,2.80
2017,01,07,06,26,2.80
2017,01,07,06,27,2.80
2017,01,07,06,28,2.80
2017,01,07,06,29,2.80
2017,01,07,06,30,2.80
2017,01,07,06,31,2.80
2017,01,07,06,32,2.80
2017,01,07,06,33,2.80
2017,01,07,06,34,2.80
2017,01,07,06,35,2.80
2017,01,07,06,36,2.80
2017,01,07,06,37,2.80
2017,01,07,06,38,2.80
2017,01,07,06,39,2.80
2017,01,07,06,40,2.80
2017,01,07,06,41,2.70
2017,01,07,06,42,2.70
2017,01,07,06,43,2.70
2017,01,07,06,44,2.70
2017,01,07,06,45,2.70
2017,01,07,06,46,2.70
2017,01,07,06,47,2.60
2017,01,07,06,48,2.60
2017,01,07,06,49,2.50
2017,01,07,06,50,2.50
2017,01,07,06,51,2.40
2017,01,07,06,52,2.40
2017,01,07,06,53,2.30
2017,01,07,06,54,2.30
2017,01,07,06,55,2.20
2017,01,07,06,56,2.10
2017,01,07,06,57,2.10
2017,01,07,06,58,2.00
2017,01,07,06,59,2.00
2017,01,07,07,00,2.00
2017,01,07,07,01,1.90
2017,01,07,07,02,1.90
2017,01,07,07,03,1.90
2017,01,07,07,04,1.80
2017,01,07,07,05,1.80
2017,01,07,07,06,1.80
2017,01,07,07,07,1.80
2017,01,07,07,08,1.80
2017,01,07,07,09,1.90
2017,01,07,07,10,1.90
2017,01,07,07,11,1.90
2017,01,07,07,12,1.90
2017,01,07,07,13,1.90
2017,01,07,07,14,1.90
2017,01,07,07,15,1.90
2017,01,07,07,16,1.90
2017,01,07,07,17,1.90
2017,01,07,07,18,1.90
2017,01,07,07,19,1.90
2017,01,07,07,20,1.80
2017,01,07,07,21,1.80
2017,01,07,07,22,1.80
2017,01,07,07,23,1.80
2017,01,07,07,24,1.80
2017,01,07,07,25,1.80
2017,01,07,07,26,1.80
2017,01,07,07,27,1.80
2017,01,07,07,28,1.80
2017,01,07,07,29,1.80
2017,01,07,07,30,1.90
2017,01,07,07,31,1.90
2017,01,07,07,32,1.90
2017,01,07,07,33,1.90
2017,01,07,07,34,1.90
2017,01,07,07,35,1.90
2017,01,07,07,36,1.90
2017,01,07,07,37,1.90
2017,01,07,07,38,1.90
2017,01,07,07,39,1.90
2017,01,07,07,40,2.00
2017,01,07,07,41,2.00
2017,01,07,07,42,1.90
2017,01,07,07,43,1.90
2017,01,07,07,44,1.90
2017,01,07,07,45,1.90
2017,01,07,07,46,1.90
2017,01,07,07,47,1.90
2017,01,07,07,48,1.90
2017,01,07,07,49,1.90
2017,01,07,07,50,1.90
2017,01,07,07,51,1.90
2017,01,07,07,52,1.90
2017,01,07,07,53,1.90
2017,01,07,07,54,1.90
2017,01,07,07,55,1.90
2017,01,07,07,56,2.00
2017,01,07,07,57,2.00
2017,01,07,07,58,2.00
2017,01,07,07,59,2.00
2017,01,07,08,00,2.00
2017,01,07,08,01,2.00
2017,01,07,08,02,2.00
2017,01,07,08,03,2.00
2017,01,07,08,04,2.00
2017,01,07,08,05,2.00
2017,01,07,08,06,1.90
2017,01,07,08,07,1.90
2017,01,07,08,08,1.80
2017,01,07,08,09,1.80
2017,01,07,08,10,1.80
2017,01,07,08,11,1.80
2017,01,07,08,12,1.70
2017,01,07,08,13,1.70
2017,01,07,08,14,1.70
2017,01,07,08,15,1.60
2017,01,07,08,16,1.60
2017,01,07,08,17,1.50
2017,01,07,08,18,1.50
2017,01,07,08,19,1.40
2017,01,07,08,20,1.40
2017,01,07,08,21,1.40
2017,01,07,08,22,1.30
2017,01,07,08,23,1.30
2017,01,07,08,24,1.30
2017,01,07,08,25,1.30
2017,01,07,08,26,1.30
2017,01,07,08,27,1.30
2017,01,07,08,28,1.30
2017,01,07,08,29,1.30
2017,01,07,08,30,1.40
2017,01,07,08,31,1.40
2017,01,07,08,32,1.40
2017,01,07,08,33,1.40
2017,01,07,08,34,1.40
2017,01,07,08,35,1.40
2017,01,07,08,36,1.40
2017,01,07,08,37,1.30
2017,01,07,08,38,1.30
2017,01,07,08,39,1.30
2017,01,07,08,40,1.20
2017,01,07,08,41,1.20
2017,01,07,08,42,1.30
2017,01,07,08,43,1.30
2017,01,07,08,44,1.30
2017,01,07,08,45,1.30
2017,01,07,08,46,1.30
2017,01,07,08,47,1.30
2017,01,07,08,48,1.30
2017,01,07,08,49,1.30
2017,01,07,08,50,1.30
2017,01,07,08,51,1.30
2017,01,07,08,52,1.30
2017,01,07,08,53,1.30
2017,01,07,08,54,1.30
2017,01,07,08,55,1.30
2017,01,07,08,56,1.30
2017,01,07,08,57,1.30
2017,01,07,08,58,1.30
2017,01,07,08,59,1.30
2017,01,07,09,00,1.30
2017,01,07,09,01,1.30
2017,01,07,09,02,1.40
2017,01,07,09,03,1.40
2017,01,07,09,04,1.40
2017,01,07,09,05,1.40
2017,01,07,09,06,1.50
2017,01,07,09,07,1.50
2017,01,07,09,08,1.50
2017,01,07,09,09,1.50
2017,01,07,09,10,1.60
2017,01,07,09,11,1.70
2017,01,07,09,12,1.70
2017,01,07,09,13,1.80
2017,01,07,09,14,1.80
2017,01,07,09,15,1.90
2017,01,07,09,16,1.90
2017,01,07,09,17,1.90
2017,01,07,09,18,1.90
2017,01,07,09,19,1.90
2017,01,07,09,20,1.90
2017,01,07,09,21,1.90
2017,01,07,09,22,1.90
2017,01,07,09,23,1.90
2017,01,07,09,24,1.90
2017,01,07,09,25,1.80
2017,01,07,09,26,1.80
2017,01,07,09,27,1.80
2017,01,07,09,28,1.80
2017,01,07,09,29,1.80
2017,01,07,09,30,1.90
2017,01,07,09,31,1.90
2017,01,07,09,32,1.80
2017,01,07,09,33,1.80
2017,01,07,09,34,1.80
2017,01,07,09,35,1.80
2017,01,07,09,36,1.80
2017,01,07,09,37,1.80
2017,01,07,09,38,1.80
2017,01,07,09,39,1.80
2017,01,07,09,40,1.80
2017,01,07,09,41,1.80
2017,01,07,09,42,1.80
2017,01,07,09,43,1.90
2017,01,07,09,44,1.90
2017,01,07,09,45,2.00
2017,01,07,09,46,2.00
2017,01,07,09,47,2.00
2017,01,07,09,48,2.00
2017,01,07,09,49,2.10
2017,01,07,09,50,2.10
2017,01,07,09,51,2.10
2017,01,07,09,52,2.10
2017,01,07,09,53,2.10
2017,01,07,09,54,2.10
2017,01,07,09,55,2.10
2017,01,07,09,56,2.10
2017,01,07,09,57,2.10
2017,01,07,09,58,2.10
2017,01,07,09,59,2.10
2017,01,07,10,00,2.10
2017,01,07,10,01,2.10
2017,01,07,10,02,2.10
2017,01,07,10,03,2.10
2017,01,07,10,04,2.10
2017,01,07,10,05,2.10
2017,01,07,10,06,2.10
2017,01,07,10,07,2.10
2017,01,07,10,08,2.10
2017,01,07,10,09,2.10
2017,01,07,10,10,2.10
2017,01,07,10,11,2.00
2017,01,07,10,12,2.00
2017,01,07,10,13,2.00
2017,01,07,10,14,2.00
2017,01,07,10,15,1.90
2017,01,07,10,16,1.90
2017,01,07,10,17,2.00
2017,01,07,10,18,2.00
2017,01,07,10,19,2.00
2017,01,07,10,20,2.00
2017,01,07,10,21,2.00
2017,01,07,10,22,1.90
2017,01,07,10,23,1.90
2017,01,07,10,24,1.90
2017,01,07,10,25,1.90
2017,01,07,10,26,1.90
2017,01,07,10,27,1.80
2017,01,07,10,28,1.80
2017,01,07,10,29,1.80
2017,01,07,10,30,1.70
2017,01,07,10,31,1.70
2017,01,07,10,32,1.70
2017,01,07,10,33,1.70
2017,01,07,10,34,1.70
2017,01,07,10,35,1.60
2017,01,07,10,36,1.60
2017,01,07,10,37,1.50
2017,01,07,10,38,1.50
2017,01,07,10,39,1.50
2017,01,07,10,40,1.40
2017,01,07,10,41,1.40
2017,01,07,10,42,1.30
2017,01,07,10,43,1.30
2017,01,07,10,44,1.30
2017,01,07,10,45,1.30
2017,01,07,10,46,1.30
2017,01,07,10,47,1.30
2017,01,07,10,48,1.30
2017,01,07,10,49,1.30
2017,01,07,10,50,1.30
2017,01,07,10,51,1.40
2017,01,07,10,52,1.40
2017,01,07,10,53,1.40
2017,01,07,10,54,1.50
2017,01,07,10,55,1.50
2017,01,07,10,56,1.60
2017,01,07,10,57,1.60
2017,01,07,10,58,1.60
2017,01,07,10,59,1.70
2017,01,07,11,00,1.70
2017,01,07,11,01,1.80
2017,01,07,11,02,1.80
2017,01,07,11,03,1.90
2017,01,07,11,04,1.90
2017,01,07,11,05,2.00
2017,01,07,11,06,2.00
2017,01,07,11,07,2.10
2017,01,07,11,08,2.10
2017,01,07,11,09,2.20
2017,01,07,11,10,2.30
2017,01,07,11,11,2.30
2017,01,07,11,12,2.40
2017,01,07,11,13,2.50
2017,01,07,11,14,2.50
2017,01,07,11,15,2.60
2017,01,07,11,16,2.70
2017,01,07,11,17,2.80
2017,01,07,11,18,2.80
2017,01,07,11,19,2.90
2017,01,07,11,20,3.00
2017,01,07,11,21,3.00
2017,01,07,11,22,3.10
2017,01,07,11,23,3.10
2017,01,07,11,24,3.20
2017,01,07,11,25,3.20
2017,01,07,11,26,3.20
2017,01,07,11,27,3.30
2017,01,07,11,28,3.30
2017,01,07,11,29,3.30
2017,01,07,11,30,3.30
2017,01,07,11,31,3.30
2017,01,07,11,32,3.20
2017,01,07,11,33,3.20
2017,01,07,11,34,3.20
2017,01,07,11,35,3.20
2017,01,07,11,36,3.20
2017,01,07,11,37,3.20
2017,01,07,11,38,3.20
2017,01,07,11,39,3.30
2017,01,07,11,40,3.30
2017,01,07,11,41,3.30
2017,01,07,11,42,3.30
2017,01,07,11,43,3.30
2017,01,07,11,44,3.40
2017,01,07,11,45,3.40
2017,01,07,11,46,3.40
2017,01,07,11,47,3.50
2017,01,07,11,48,3.50
2017,01,07,11,49,3.50
2017,01,07,11,50,3.50
2017,01,07,11,51,3.60
2017,01,07,11,52,3.60
2017,01,07,11,53,3.60
2017,01,07,11,54,3.60
2017,01,07,11,55,3.60
2017,01,07,11,56,3.70
2017,01,07,11,57,3.70
2017,01,07,11,58,3.60
2017,01,07,11,59,3.60
2017,01,07,12,00,3.60
2017,01,07,12,01,3.60
2017,01,07,12,02,3.60
2017,01,07,12,03,3.60
2017,01,07,12,04,3.60
2017,01,07,12,05,3.50
2017,01,07,12,06,3.50
2017,01,07,12,07,3.50
2017,01,07,12,08,3.50
2017,01,07,12,09,3.50
2017,01,07,12,10,3.50
2017,01,07,12,11,3.50
2017,01,07,12,12,3.50
2017,01,07,12,13,3.50
2017,01,07,12,14,3.50
2017,01,07,12,15,3.50
2017,01,07,12,16,3.50
2017,01,07,12,17,3.50
2017,01,07,12,18,3.50
2017,01,07,12,19,3.50
2017,01,07,12,20,3.50
2017,01,07,12,21,3.40
2017,01,07,12,22,3.40
2017,01,07,12,23,3.40
2017,01,07,12,24,3.30
2017,01,07,12,25,3.30
2017,01,07,12,26,3.20
2017,01,07,12,27,3.20
2017,01,07,12,28,3.20
2017,01,07,12,29,3.20
2017,01,07,12,30,3.20
2017,01,07,12,31,3.20
2017,01,07,12,32,3.10
2017,01,07,12,33,3.10
2017,01,07,12,34,3.10
2017,01,07,12,35,3.10
2017,01,07,12,36,3.10
2017,01,07,12,37,3.10
2017,01,07,12,38,3.10
2017,01,07,12,39,3.10
2017,01,07,12,40,3.10
2017,01,07,12,41,3.10
2017,01,07,12,42,3.20
2017,01,07,12,43,3.20
2017,01,07,12,44,3.20
2017,01,07,12,45,3.30
2017,01,07,12,46,3.30
2017,01,07,12,47,3.30
2017,01,07,12,48,3.30
2017,01,07,12,49,3.40
2017,01,07,12,50,3.40
2017,01,07,12,51,3.40
2017,01,07,12,52,3.50
2017,01,07,12,53,3.50
2017,01,07,12,54,3.50
2017,01,07,12,55,3.60
2017,01,07,12,56,3.60
2017,01,07,12,57,3.50
2017,01,07,12,58,3.60
2017,01,07,12,59,3.60
2017,01,07,13,00,3.60
2017,01,07,13,01,3.60
2017,01,07,13,02,3.60
2017,01,07,13,03,3.60
2017,01,07,13,04,3.60
2017,01,07,13,05,3.60
2017,01,07,13,06,3.70
2017,01,07,13,07,3.70
2017,01,07,13,08,3.70
2017,01,07,13,09,3.70
2017,01,07,13,10,3.70
2017,01,07,13,11,3.70
2017,01,07,13,12,3.70
2017,01,07,13,13,3.70
2017,01,07,13,14,3.70
2017,01,07,13,15,3.70
2017,01,07,13,16,3.80
2017,01,07,13,17,3.80
2017,01,07,13,18,3.80
2017,01,07,13,19,3.80
2017,01,07,13,20,3.80
2017,01,07,13,21,3.80
2017,01,07,13,22,3.80
2017,01,07,13,23,3.80
2017,01,07,13,24,3.80
2017,01,07,13,25,3.80
2017,01,07,13,26,3.80
2017,01,07,13,27,3.80
2017,01,07,13,28,3.90
2017,01,07,13,29,3.90
2017,01,07,13,30,3.90
2017,01,07,13,31,3.90
2017,01,07,13,32,3.90
2017,01,07,13,33,3.90
2017,01,07,13,34,3.90
2017,01,07,13,35,3.90
2017,01,07,13,36,3.90
2017,01,07,13,37,3.90
2017,01,07,13,38,3.90
2017,01,07,13,39,3.90
2017,01,07,13,40,3.90
2017,01,07,13,41,3.90
2017,01,07,13,42,3.90
2017,01,07,13,43,3.90
2017,01,07,13,44,3.90
2017,01,07,13,45,3.90
2017,01,07,13,46,3.80
2017,01,07,13,47,3.80
2017,01,07,13,48,3.80
2017,01,07,13,49,3.70
2017,01,07,13,50,3.70
2017,01,07,13,51,3.60
2017,01,07,13,52,3.50
2017,01,07,13,53,3.50
2017,01,07,13,54,3.40
2017,01,07,13,55,3.40
2017,01,07,13,56,3.40
2017,01,07,13,57,3.40
2017,01,07,13,58,3.40
2017,01,07,13,59,3.40
2017,01,07,14,00,3.30
2017,01,07,14,01,3.30
2017,01,07,14,02,3.20
2017,01,07,14,03,3.20
2017,01,07,14,04,3.10
2017,01,07,14,05,3.10
2017,01,07,14,06,3.10
2017,01,07,14,07,3.10
2017,01,07,14,08,3.10
2017,01,07,14,09,3.10
2017,01,07,14,10,3.10
2017,01,07,14,11,3.10
2017,01,07,14,12,3.10
2017,01,07,14,13,3.10
2017,01,07,14,14,3.10
2017,01,07,14,15,3.10
2017,01,07,14,16,3.20
2017,01,07,14,17,3.20
2017,01,07,14,18,3.20
2017,01,07,14,19,3.20
2017,01,07,14,20,3.10
2017,01,07,14,21,3.10
2017,01,07,14,22,3.10
2017,01,07,14,23,3.10
2017,01,07,14,24,3.10
2017,01,07,14,25,3.10
2017,01,07,14,26,3.10
2017,01,07,14,27,3.00
2017,01,07,14,28,3.00
2017,01,07,14,29,3.00
2017,01,07,14,30,2.90
2017,01,07,14,31,2.90
2017,01,07,14,32,2.90
2017,01,07,14,33,2.90
2017,01,07,14,34,2.80
2017,01,07,14,35,2.80
2017,01,07,14,36,2.80
2017,01,07,14,37,2.70
2017,01,07,14,38,2.80
2017,01,07,14,39,2.80
2017,01,07,14,40,2.80
2017,01,07,14,41,2.80
2017,01,07,14,42,2.80
2017,01,07,14,43,2.80
2017,01,07,14,44,2.70
2017,01,07,14,45,2.70
2017,01,07,14,46,2.80
2017,01,07,14,47,2.70
2017,01,07,14,48,2.70
2017,01,07,14,49,2.70
2017,01,07,14,50,2.70
2017,01,07,14,51,2.70
2017,01,07,14,52,2.60
2017,01,07,14,53,2.60
2017,01,07,14,54,2.60
2017,01,07,14,55,2.60
2017,01,07,14,56,2.60
2017,01,07,14,57,2.60
2017,01,07,14,58,2.60
2017,01,07,14,59,2.60
2017,01,07,15,00,2.60
2017,01,07,15,01,2.70
2017,01,07,15,02,2.70
2017,01,07,15,03,2.70
2017,01,07,15,04,2.70
2017,01,07,15,05,2.70
2017,01,07,15,06,2.80
2017,01,07,15,07,2.80
2017,01,07,15,08,2.80
2017,01,07,15,09,2.80
2017,01,07,15,10,2.80
2017,01,07,15,11,2.80
2017,01,07,15,12,2.70
2017,01,07,15,13,2.70
2017,01,07,15,14,2.70
2017,01,07,15,15,2.70
2017,01,07,15,16,2.70
2017,01,07,15,17,2.70
2017,01,07,15,18,2.70
2017,01,07,15,19,2.70
2017,01,07,15,20,2.60
2017,01,07,15,21,2.60
2017,01,07,15,22,2.60
2017,01,07,15,23,2.60
2017,01,07,15,24,2.60
2017,01,07,15,25,2.50
2017,01,07,15,26,2.50
2017,01,07,15,27,2.40
2017,01,07,15,28,2.40
2017,01,07,15,29,2.40
2017,01,07,15,30,2.40
2017,01,07,15,31,2.40
2017,01,07,15,32,2.40
2017,01,07,15,33,2.50
2017,01,07,15,34,2.50
2017,01,07,15,35,2.50
2017,01,07,15,36,2.50
2017,01,07,15,37,2.50
2017,01,07,15,38,2.50
2017,01,07,15,39,2.50
2017,01,07,15,40,2.50
2017,01,07,15,41,2.50
2017,01,07,15,42,2.60
2017,01,07,15,43,2.60
2017,01,07,15,44,2.60
2017,01,07,15,45,2.60
2017,01,07,15,46,2.60
2017,01,07,15,47,2.70
2017,01,07,15,48,2.60
2017,01,07,15,49,2.60
2017,01,07,15,50,2.60
2017,01,07,15,51,2.60
2017,01,07,15,52,2.60
2017,01,07,15,53,2.60
2017,01,07,15,54,2.60
2017,01,07,15,55,2.60
2017,01,07,15,56,2.60
2017,01,07,15,57,2.60
2017,01,07,15,58,2.60
2017,01,07,15,59,2.60
2017,01,07,16,00,2.60
2017,01,07,16,01,2.60
2017,01,07,16,02,2.60
2017,01,07,16,03,2.60
2017,01,07,16,04,2.60
2017,01,07,16,05,2.50
2017,01,07,16,06,2.50
2017,01,07,16,07,2.40
2017,01,07,16,08,2.40
2017,01,07,16,09,2.40
2017,01,07,16,10,2.30
2017,01,07,16,11,2.30
2017,01,07,16,12,2.30
2017,01,07,16,13,2.30
2017,01,07,16,14,2.20
2017,01,07,16,15,2.20
2017,01,07,16,16,2.10
2017,01,07,16,17,2.10
2017,01,07,16,18,2.10
2017,01,07,16,19,2.10
2017,01,07,16,20,2.10
2017,01,07,16,21,2.10
2017,01,07,16,22,2.10
2017,01,07,16,23,2.10
2017,01,07,16,24,2.10
2017,01,07,16,25,2.10
2017,01,07,16,26,2.00
2017,01,07,16,27,2.00
2017,01,07,16,28,2.00
2017,01,07,16,29,2.00
2017,01,07,16,30,2.10
2017,01,07,16,31,2.10
2017,01,07,16,32,2.20
2017,01,07,16,33,2.20
2017,01,07,16,34,2.20
2017,01,07,16,35,2.20
2017,01,07,16,36,2.20
2017,01,07,16,37,2.20
2017,01,07,16,38,2.20
2017,01,07,16,39,2.10
2017,01,07,16,40,2.10
2017,01,07,16,41,2.10
2017,01,07,16,42,2.00
2017,01,07,16,43,2.00
2017,01,07,16,44,2.00
2017,01,07,16,45,1.90
2017,01,07,16,46,1.90
2017,01,07,16,47,1.90
2017,01,07,16,48,1.90
2017,01,07,16,49,1.80
2017,01,07,16,50,1.80
2017,01,07,16,51,1.80
2017,01,07,16,52,1.80
2017,01,07,16,53,1.80
2017,01,07,16,54,1.80
2017,01,07,16,55,1.70
2017,01,07,16,56,1.70
2017,01,07,16,57,1.70
2017,01,07,16,58,1.70
2017,01,07,16,59,1.70
2017,01,07,17,00,1.60
2017,01,07,17,01,1.60
2017,01,07,17,02,1.60
2017,01,07,17,03,1.60
2017,01,07,17,04,1.60
2017,01,07,17,05,1.50
2017,01,07,17,06,1.50
2017,01,07,17,07,1.50
2017,01,07,17,08,1.50
2017,01,07,17,09,1.50
2017,01,07,17,10,1.40
2017,01,07,17,11,1.40
2017,01,07,17,12,1.40
2017,01,07,17,13,1.40
2017,01,07,17,14,1.40
2017,01,07,17,15,1.40
2017,01,07,17,16,1.30
2017,01,07,17,17,1.30
2017,01,07,17,18,1.30
2017,01,07,17,19,1.30
2017,01,07,17,20,1.30
2017,01,07,17,21,1.30
2017,01,07,17,22,1.30
2017,01,07,17,23,1.30
2017,01,07,17,24,1.30
2017,01,07,17,25,1.30
2017,01,07,17,26,1.30
2017,01,07,17,27,1.30
2017,01,07,17,28,1.30
2017,01,07,17,29,1.30
2017,01,07,17,30,1.30
2017,01,07,17,31,1.30
2017,01,07,17,32,1.30
2017,01,07,17,33,1.30
2017,01,07,17,34,1.30
2017,01,07,17,35,1.30
2017,01,07,17,36,1.30
2017,01,07,17,37,1.30
2017,01,07,17,38,1.30
2017,01,07,17,39,1.30
2017,01,07,17,40,1.20
2017,01,07,17,41,1.20
2017,01,07,17,42,1.20
2017,01,07,17,43,1.20
2017,01,07,17,44,1.20
2017,01,07,17,45,1.20
2017,01,07,17,46,1.20
2017,01,07,17,47,1.20
2017,01,07,17,48,1.20
2017,01,07,17,49,1.10
2017,01,07,17,50,1.10
2017,01,07,17,51,1.10
2017,01,07,17,52,1.10
2017,01,07,17,53,1.10
2017,01,07,17,54,1.10
2017,01,07,17,55,1.10
2017,01,07,17,56,1.10
2017,01,07,17,57,1.10
2017,01,07,17,58,1.10
2017,01,07,17,59,1.10
2017,01,07,18,00,1.10
2017,01,07,18,01,1.10
2017,01,07,18,02,1.10
2017,01,07,18,03,1.10
2017,01,07,18,04,1.10
2017,01,07,18,05,1.10
2017,01,07,18,06,1.10